<?xml version="1.0"?>
<gpx xmlns="http://www.topografix.com/GPX/1/1" xmlns:xsi="http://www.w3.org/2001/XMLSchema-instance" version="1.1" creator="GPX RubyGem 1.0.0 -- http://dougfales.github.io/gpx/" xsi:schemaLocation="http://www.topografix.com/GPX/1/1 http://www.topografix.com/GPX/1/1/gpx.xsd">
  <metadata>
    <name/>
    <time>2026-05-09T08:15:09+00:00</time>
    <bound minlat="90.0" minlon="180.0" maxlat="-90.0" maxlon="-180.0"/>
  </metadata>
  <trk>
    <name/>
    <trkseg>
      <trkpt lat="43.700037" lon="11.096036">
        <time>1970-01-01T00:00:00+00:00</time>
        <ele>65.0</ele>
      </trkpt>
      <trkpt lat="43.699995" lon="11.096148">
        <time>1970-01-01T00:00:00+00:00</time>
        <ele>65.0</ele>
      </trkpt>
      <trkpt lat="43.700099" lon="11.096222">
        <time>1970-01-01T00:00:00+00:00</time>
        <ele>67.0</ele>
      </trkpt>
      <trkpt lat="43.700148" lon="11.096256">
        <time>1970-01-01T00:00:00+00:00</time>
        <ele>68.0</ele>
      </trkpt>
      <trkpt lat="43.699789" lon="11.097174">
        <time>1970-01-01T00:00:00+00:00</time>
        <ele>69.0</ele>
      </trkpt>
      <trkpt lat="43.699492" lon="11.097959">
        <time>1970-01-01T00:00:00+00:00</time>
        <ele>72.0</ele>
      </trkpt>
      <trkpt lat="43.699423" lon="11.098131">
        <time>1970-01-01T00:00:00+00:00</time>
        <ele>72.0</ele>
      </trkpt>
      <trkpt lat="43.698909" lon="11.099484">
        <time>1970-01-01T00:00:00+00:00</time>
        <ele>66.0</ele>
      </trkpt>
      <trkpt lat="43.698853" lon="11.099598">
        <time>1970-01-01T00:00:00+00:00</time>
        <ele>65.0</ele>
      </trkpt>
      <trkpt lat="43.698709" lon="11.099842">
        <time>1970-01-01T00:00:00+00:00</time>
        <ele>66.0</ele>
      </trkpt>
      <trkpt lat="43.698593" lon="11.099988">
        <time>1970-01-01T00:00:00+00:00</time>
        <ele>65.0</ele>
      </trkpt>
      <trkpt lat="43.698447" lon="11.100133">
        <time>1970-01-01T00:00:00+00:00</time>
        <ele>65.0</ele>
      </trkpt>
      <trkpt lat="43.698247" lon="11.100227">
        <time>1970-01-01T00:00:00+00:00</time>
        <ele>65.0</ele>
      </trkpt>
      <trkpt lat="43.697673" lon="11.100356">
        <time>1970-01-01T00:00:00+00:00</time>
        <ele>67.0</ele>
      </trkpt>
      <trkpt lat="43.697193" lon="11.100455">
        <time>1970-01-01T00:00:00+00:00</time>
        <ele>65.0</ele>
      </trkpt>
      <trkpt lat="43.69704" lon="11.100534">
        <time>1970-01-01T00:00:00+00:00</time>
        <ele>65.0</ele>
      </trkpt>
      <trkpt lat="43.697138" lon="11.10062">
        <time>1970-01-01T00:00:00+00:00</time>
        <ele>66.0</ele>
      </trkpt>
      <trkpt lat="43.697602" lon="11.101218">
        <time>1970-01-01T00:00:00+00:00</time>
        <ele>69.0</ele>
      </trkpt>
      <trkpt lat="43.698645" lon="11.102484">
        <time>1970-01-01T00:00:00+00:00</time>
        <ele>81.0</ele>
      </trkpt>
      <trkpt lat="43.698938" lon="11.102715">
        <time>1970-01-01T00:00:00+00:00</time>
        <ele>86.0</ele>
      </trkpt>
      <trkpt lat="43.699058" lon="11.102902">
        <time>1970-01-01T00:00:00+00:00</time>
        <ele>88.0</ele>
      </trkpt>
      <trkpt lat="43.699215" lon="11.103348">
        <time>1970-01-01T00:00:00+00:00</time>
        <ele>90.0</ele>
      </trkpt>
      <trkpt lat="43.699463" lon="11.103906">
        <time>1970-01-01T00:00:00+00:00</time>
        <ele>92.0</ele>
      </trkpt>
      <trkpt lat="43.699882" lon="11.105375">
        <time>1970-01-01T00:00:00+00:00</time>
        <ele>102.0</ele>
      </trkpt>
      <trkpt lat="43.700107" lon="11.106298">
        <time>1970-01-01T00:00:00+00:00</time>
        <ele>102.0</ele>
      </trkpt>
      <trkpt lat="43.700441" lon="11.107543">
        <time>1970-01-01T00:00:00+00:00</time>
        <ele>101.0</ele>
      </trkpt>
      <trkpt lat="43.700829" lon="11.10854">
        <time>1970-01-01T00:00:00+00:00</time>
        <ele>105.0</ele>
      </trkpt>
      <trkpt lat="43.701206" lon="11.109294">
        <time>1970-01-01T00:00:00+00:00</time>
        <ele>113.0</ele>
      </trkpt>
      <trkpt lat="43.701274" lon="11.109345">
        <time>1970-01-01T00:00:00+00:00</time>
        <ele>114.0</ele>
      </trkpt>
      <trkpt lat="43.70141" lon="11.109332">
        <time>1970-01-01T00:00:00+00:00</time>
        <ele>116.0</ele>
      </trkpt>
      <trkpt lat="43.701468" lon="11.109372">
        <time>1970-01-01T00:00:00+00:00</time>
        <ele>117.0</ele>
      </trkpt>
      <trkpt lat="43.701517" lon="11.109506">
        <time>1970-01-01T00:00:00+00:00</time>
        <ele>117.0</ele>
      </trkpt>
      <trkpt lat="43.701527" lon="11.110021">
        <time>1970-01-01T00:00:00+00:00</time>
        <ele>115.0</ele>
      </trkpt>
      <trkpt lat="43.701793" lon="11.111584">
        <time>1970-01-01T00:00:00+00:00</time>
        <ele>115.0</ele>
      </trkpt>
      <trkpt lat="43.702085" lon="11.112318">
        <time>1970-01-01T00:00:00+00:00</time>
        <ele>115.0</ele>
      </trkpt>
      <trkpt lat="43.702689" lon="11.111976">
        <time>1970-01-01T00:00:00+00:00</time>
        <ele>107.0</ele>
      </trkpt>
      <trkpt lat="43.702898" lon="11.11188">
        <time>1970-01-01T00:00:00+00:00</time>
        <ele>104.0</ele>
      </trkpt>
      <trkpt lat="43.703067" lon="11.11186">
        <time>1970-01-01T00:00:00+00:00</time>
        <ele>102.0</ele>
      </trkpt>
      <trkpt lat="43.703471" lon="11.111866">
        <time>1970-01-01T00:00:00+00:00</time>
        <ele>97.0</ele>
      </trkpt>
      <trkpt lat="43.703657" lon="11.111834">
        <time>1970-01-01T00:00:00+00:00</time>
        <ele>96.0</ele>
      </trkpt>
      <trkpt lat="43.703762" lon="11.111772">
        <time>1970-01-01T00:00:00+00:00</time>
        <ele>96.0</ele>
      </trkpt>
      <trkpt lat="43.703852" lon="11.11162">
        <time>1970-01-01T00:00:00+00:00</time>
        <ele>97.0</ele>
      </trkpt>
      <trkpt lat="43.703891" lon="11.111516">
        <time>1970-01-01T00:00:00+00:00</time>
        <ele>98.0</ele>
      </trkpt>
      <trkpt lat="43.703951" lon="11.111532">
        <time>1970-01-01T00:00:00+00:00</time>
        <ele>98.0</ele>
      </trkpt>
      <trkpt lat="43.703981" lon="11.111517">
        <time>1970-01-01T00:00:00+00:00</time>
        <ele>97.0</ele>
      </trkpt>
      <trkpt lat="43.704008" lon="11.111577">
        <time>1970-01-01T00:00:00+00:00</time>
        <ele>96.0</ele>
      </trkpt>
      <trkpt lat="43.704054" lon="11.111596">
        <time>1970-01-01T00:00:00+00:00</time>
        <ele>95.0</ele>
      </trkpt>
      <trkpt lat="43.704217" lon="11.11137">
        <time>1970-01-01T00:00:00+00:00</time>
        <ele>95.0</ele>
      </trkpt>
      <trkpt lat="43.704309" lon="11.111354">
        <time>1970-01-01T00:00:00+00:00</time>
        <ele>93.0</ele>
      </trkpt>
      <trkpt lat="43.704361" lon="11.111389">
        <time>1970-01-01T00:00:00+00:00</time>
        <ele>92.0</ele>
      </trkpt>
      <trkpt lat="43.705061" lon="11.113468">
        <time>1970-01-01T00:00:00+00:00</time>
        <ele>91.0</ele>
      </trkpt>
      <trkpt lat="43.705531" lon="11.114994">
        <time>1970-01-01T00:00:00+00:00</time>
        <ele>94.0</ele>
      </trkpt>
      <trkpt lat="43.705868" lon="11.116034">
        <time>1970-01-01T00:00:00+00:00</time>
        <ele>99.0</ele>
      </trkpt>
      <trkpt lat="43.706017" lon="11.117113">
        <time>1970-01-01T00:00:00+00:00</time>
        <ele>105.0</ele>
      </trkpt>
      <trkpt lat="43.705969" lon="11.117282">
        <time>1970-01-01T00:00:00+00:00</time>
        <ele>105.0</ele>
      </trkpt>
      <trkpt lat="43.706029" lon="11.117437">
        <time>1970-01-01T00:00:00+00:00</time>
        <ele>102.0</ele>
      </trkpt>
      <trkpt lat="43.706096" lon="11.117552">
        <time>1970-01-01T00:00:00+00:00</time>
        <ele>100.0</ele>
      </trkpt>
      <trkpt lat="43.706267" lon="11.118045">
        <time>1970-01-01T00:00:00+00:00</time>
        <ele>98.0</ele>
      </trkpt>
      <trkpt lat="43.706267" lon="11.118161">
        <time>1970-01-01T00:00:00+00:00</time>
        <ele>98.0</ele>
      </trkpt>
      <trkpt lat="43.706172" lon="11.118387">
        <time>1970-01-01T00:00:00+00:00</time>
        <ele>100.0</ele>
      </trkpt>
      <trkpt lat="43.706172" lon="11.118481">
        <time>1970-01-01T00:00:00+00:00</time>
        <ele>101.0</ele>
      </trkpt>
      <trkpt lat="43.70632" lon="11.118811">
        <time>1970-01-01T00:00:00+00:00</time>
        <ele>99.0</ele>
      </trkpt>
      <trkpt lat="43.706342" lon="11.119025">
        <time>1970-01-01T00:00:00+00:00</time>
        <ele>100.0</ele>
      </trkpt>
      <trkpt lat="43.706298" lon="11.119225">
        <time>1970-01-01T00:00:00+00:00</time>
        <ele>102.0</ele>
      </trkpt>
      <trkpt lat="43.706469" lon="11.119803">
        <time>1970-01-01T00:00:00+00:00</time>
        <ele>102.0</ele>
      </trkpt>
      <trkpt lat="43.706566" lon="11.120288">
        <time>1970-01-01T00:00:00+00:00</time>
        <ele>103.0</ele>
      </trkpt>
      <trkpt lat="43.706622" lon="11.120364">
        <time>1970-01-01T00:00:00+00:00</time>
        <ele>102.0</ele>
      </trkpt>
      <trkpt lat="43.706678" lon="11.120355">
        <time>1970-01-01T00:00:00+00:00</time>
        <ele>101.0</ele>
      </trkpt>
      <trkpt lat="43.706839" lon="11.120251">
        <time>1970-01-01T00:00:00+00:00</time>
        <ele>99.0</ele>
      </trkpt>
      <trkpt lat="43.706911" lon="11.120286">
        <time>1970-01-01T00:00:00+00:00</time>
        <ele>98.0</ele>
      </trkpt>
      <trkpt lat="43.707016" lon="11.120496">
        <time>1970-01-01T00:00:00+00:00</time>
        <ele>98.0</ele>
      </trkpt>
      <trkpt lat="43.707016" lon="11.120496">
        <time>1970-01-01T00:00:00+00:00</time>
        <ele>98.0</ele>
      </trkpt>
      <trkpt lat="43.706911" lon="11.120286">
        <time>1970-01-01T00:00:00+00:00</time>
        <ele>98.0</ele>
      </trkpt>
      <trkpt lat="43.706839" lon="11.120251">
        <time>1970-01-01T00:00:00+00:00</time>
        <ele>99.0</ele>
      </trkpt>
      <trkpt lat="43.706678" lon="11.120355">
        <time>1970-01-01T00:00:00+00:00</time>
        <ele>101.0</ele>
      </trkpt>
      <trkpt lat="43.706622" lon="11.120364">
        <time>1970-01-01T00:00:00+00:00</time>
        <ele>102.0</ele>
      </trkpt>
      <trkpt lat="43.706566" lon="11.120288">
        <time>1970-01-01T00:00:00+00:00</time>
        <ele>103.0</ele>
      </trkpt>
      <trkpt lat="43.706469" lon="11.119803">
        <time>1970-01-01T00:00:00+00:00</time>
        <ele>102.0</ele>
      </trkpt>
      <trkpt lat="43.706298" lon="11.119225">
        <time>1970-01-01T00:00:00+00:00</time>
        <ele>102.0</ele>
      </trkpt>
      <trkpt lat="43.706342" lon="11.119025">
        <time>1970-01-01T00:00:00+00:00</time>
        <ele>100.0</ele>
      </trkpt>
      <trkpt lat="43.70632" lon="11.118811">
        <time>1970-01-01T00:00:00+00:00</time>
        <ele>99.0</ele>
      </trkpt>
      <trkpt lat="43.706172" lon="11.118481">
        <time>1970-01-01T00:00:00+00:00</time>
        <ele>101.0</ele>
      </trkpt>
      <trkpt lat="43.706172" lon="11.118387">
        <time>1970-01-01T00:00:00+00:00</time>
        <ele>100.0</ele>
      </trkpt>
      <trkpt lat="43.706267" lon="11.118161">
        <time>1970-01-01T00:00:00+00:00</time>
        <ele>98.0</ele>
      </trkpt>
      <trkpt lat="43.706267" lon="11.118045">
        <time>1970-01-01T00:00:00+00:00</time>
        <ele>98.0</ele>
      </trkpt>
      <trkpt lat="43.706096" lon="11.117552">
        <time>1970-01-01T00:00:00+00:00</time>
        <ele>100.0</ele>
      </trkpt>
      <trkpt lat="43.706029" lon="11.117437">
        <time>1970-01-01T00:00:00+00:00</time>
        <ele>102.0</ele>
      </trkpt>
      <trkpt lat="43.705969" lon="11.117282">
        <time>1970-01-01T00:00:00+00:00</time>
        <ele>105.0</ele>
      </trkpt>
      <trkpt lat="43.706017" lon="11.117113">
        <time>1970-01-01T00:00:00+00:00</time>
        <ele>105.0</ele>
      </trkpt>
      <trkpt lat="43.705868" lon="11.116034">
        <time>1970-01-01T00:00:00+00:00</time>
        <ele>99.0</ele>
      </trkpt>
      <trkpt lat="43.705531" lon="11.114994">
        <time>1970-01-01T00:00:00+00:00</time>
        <ele>94.0</ele>
      </trkpt>
      <trkpt lat="43.705061" lon="11.113468">
        <time>1970-01-01T00:00:00+00:00</time>
        <ele>91.0</ele>
      </trkpt>
      <trkpt lat="43.704361" lon="11.111389">
        <time>1970-01-01T00:00:00+00:00</time>
        <ele>92.0</ele>
      </trkpt>
      <trkpt lat="43.704309" lon="11.111354">
        <time>1970-01-01T00:00:00+00:00</time>
        <ele>93.0</ele>
      </trkpt>
      <trkpt lat="43.704217" lon="11.11137">
        <time>1970-01-01T00:00:00+00:00</time>
        <ele>95.0</ele>
      </trkpt>
      <trkpt lat="43.704054" lon="11.111596">
        <time>1970-01-01T00:00:00+00:00</time>
        <ele>95.0</ele>
      </trkpt>
      <trkpt lat="43.704008" lon="11.111577">
        <time>1970-01-01T00:00:00+00:00</time>
        <ele>96.0</ele>
      </trkpt>
      <trkpt lat="43.703981" lon="11.111517">
        <time>1970-01-01T00:00:00+00:00</time>
        <ele>97.0</ele>
      </trkpt>
      <trkpt lat="43.703951" lon="11.111532">
        <time>1970-01-01T00:00:00+00:00</time>
        <ele>98.0</ele>
      </trkpt>
      <trkpt lat="43.703891" lon="11.111516">
        <time>1970-01-01T00:00:00+00:00</time>
        <ele>98.0</ele>
      </trkpt>
      <trkpt lat="43.703852" lon="11.11162">
        <time>1970-01-01T00:00:00+00:00</time>
        <ele>97.0</ele>
      </trkpt>
      <trkpt lat="43.703762" lon="11.111772">
        <time>1970-01-01T00:00:00+00:00</time>
        <ele>96.0</ele>
      </trkpt>
      <trkpt lat="43.703657" lon="11.111834">
        <time>1970-01-01T00:00:00+00:00</time>
        <ele>96.0</ele>
      </trkpt>
      <trkpt lat="43.703471" lon="11.111866">
        <time>1970-01-01T00:00:00+00:00</time>
        <ele>97.0</ele>
      </trkpt>
      <trkpt lat="43.703067" lon="11.11186">
        <time>1970-01-01T00:00:00+00:00</time>
        <ele>102.0</ele>
      </trkpt>
      <trkpt lat="43.702898" lon="11.11188">
        <time>1970-01-01T00:00:00+00:00</time>
        <ele>104.0</ele>
      </trkpt>
      <trkpt lat="43.702689" lon="11.111976">
        <time>1970-01-01T00:00:00+00:00</time>
        <ele>107.0</ele>
      </trkpt>
      <trkpt lat="43.702085" lon="11.112318">
        <time>1970-01-01T00:00:00+00:00</time>
        <ele>115.0</ele>
      </trkpt>
      <trkpt lat="43.701793" lon="11.111584">
        <time>1970-01-01T00:00:00+00:00</time>
        <ele>115.0</ele>
      </trkpt>
      <trkpt lat="43.701527" lon="11.110021">
        <time>1970-01-01T00:00:00+00:00</time>
        <ele>115.0</ele>
      </trkpt>
      <trkpt lat="43.701517" lon="11.109506">
        <time>1970-01-01T00:00:00+00:00</time>
        <ele>117.0</ele>
      </trkpt>
      <trkpt lat="43.701468" lon="11.109372">
        <time>1970-01-01T00:00:00+00:00</time>
        <ele>117.0</ele>
      </trkpt>
      <trkpt lat="43.70141" lon="11.109332">
        <time>1970-01-01T00:00:00+00:00</time>
        <ele>116.0</ele>
      </trkpt>
      <trkpt lat="43.701274" lon="11.109345">
        <time>1970-01-01T00:00:00+00:00</time>
        <ele>114.0</ele>
      </trkpt>
      <trkpt lat="43.701206" lon="11.109294">
        <time>1970-01-01T00:00:00+00:00</time>
        <ele>113.0</ele>
      </trkpt>
      <trkpt lat="43.700829" lon="11.10854">
        <time>1970-01-01T00:00:00+00:00</time>
        <ele>105.0</ele>
      </trkpt>
      <trkpt lat="43.700441" lon="11.107543">
        <time>1970-01-01T00:00:00+00:00</time>
        <ele>101.0</ele>
      </trkpt>
      <trkpt lat="43.700107" lon="11.106298">
        <time>1970-01-01T00:00:00+00:00</time>
        <ele>102.0</ele>
      </trkpt>
      <trkpt lat="43.699882" lon="11.105375">
        <time>1970-01-01T00:00:00+00:00</time>
        <ele>102.0</ele>
      </trkpt>
      <trkpt lat="43.699463" lon="11.103906">
        <time>1970-01-01T00:00:00+00:00</time>
        <ele>92.0</ele>
      </trkpt>
      <trkpt lat="43.699215" lon="11.103348">
        <time>1970-01-01T00:00:00+00:00</time>
        <ele>90.0</ele>
      </trkpt>
      <trkpt lat="43.699058" lon="11.102902">
        <time>1970-01-01T00:00:00+00:00</time>
        <ele>88.0</ele>
      </trkpt>
      <trkpt lat="43.698938" lon="11.102715">
        <time>1970-01-01T00:00:00+00:00</time>
        <ele>86.0</ele>
      </trkpt>
      <trkpt lat="43.698645" lon="11.102484">
        <time>1970-01-01T00:00:00+00:00</time>
        <ele>81.0</ele>
      </trkpt>
      <trkpt lat="43.697602" lon="11.101218">
        <time>1970-01-01T00:00:00+00:00</time>
        <ele>69.0</ele>
      </trkpt>
      <trkpt lat="43.697138" lon="11.10062">
        <time>1970-01-01T00:00:00+00:00</time>
        <ele>66.0</ele>
      </trkpt>
      <trkpt lat="43.69704" lon="11.100534">
        <time>1970-01-01T00:00:00+00:00</time>
        <ele>65.0</ele>
      </trkpt>
      <trkpt lat="43.697193" lon="11.100455">
        <time>1970-01-01T00:00:00+00:00</time>
        <ele>65.0</ele>
      </trkpt>
      <trkpt lat="43.697673" lon="11.100356">
        <time>1970-01-01T00:00:00+00:00</time>
        <ele>67.0</ele>
      </trkpt>
      <trkpt lat="43.698247" lon="11.100227">
        <time>1970-01-01T00:00:00+00:00</time>
        <ele>65.0</ele>
      </trkpt>
      <trkpt lat="43.698447" lon="11.100133">
        <time>1970-01-01T00:00:00+00:00</time>
        <ele>65.0</ele>
      </trkpt>
      <trkpt lat="43.698593" lon="11.099988">
        <time>1970-01-01T00:00:00+00:00</time>
        <ele>65.0</ele>
      </trkpt>
      <trkpt lat="43.698709" lon="11.099842">
        <time>1970-01-01T00:00:00+00:00</time>
        <ele>66.0</ele>
      </trkpt>
      <trkpt lat="43.698853" lon="11.099598">
        <time>1970-01-01T00:00:00+00:00</time>
        <ele>65.0</ele>
      </trkpt>
      <trkpt lat="43.698909" lon="11.099484">
        <time>1970-01-01T00:00:00+00:00</time>
        <ele>66.0</ele>
      </trkpt>
      <trkpt lat="43.699423" lon="11.098131">
        <time>1970-01-01T00:00:00+00:00</time>
        <ele>72.0</ele>
      </trkpt>
      <trkpt lat="43.699492" lon="11.097959">
        <time>1970-01-01T00:00:00+00:00</time>
        <ele>72.0</ele>
      </trkpt>
      <trkpt lat="43.699789" lon="11.097174">
        <time>1970-01-01T00:00:00+00:00</time>
        <ele>69.0</ele>
      </trkpt>
      <trkpt lat="43.700148" lon="11.096256">
        <time>1970-01-01T00:00:00+00:00</time>
        <ele>68.0</ele>
      </trkpt>
      <trkpt lat="43.700099" lon="11.096222">
        <time>1970-01-01T00:00:00+00:00</time>
        <ele>67.0</ele>
      </trkpt>
      <trkpt lat="43.699995" lon="11.096148">
        <time>1970-01-01T00:00:00+00:00</time>
        <ele>65.0</ele>
      </trkpt>
      <trkpt lat="43.700037" lon="11.096036">
        <time>1970-01-01T00:00:00+00:00</time>
        <ele>65.0</ele>
      </trkpt>
    </trkseg>
  </trk>
</gpx>
